Theta_e
313 306 305 305 307 310 312 313 315 316 317 316 316 315 313 313 315 317 320 325 328 325 321 322 322 322 323 327 333 335 336 335 335 335 336 337 337 338 340 340 341 342 343 347 350 351 353 353 355 356 355 356 356 358 358 359 360 361 360 360 360 364 364 363 367 366 362 362 363 364 361 358 362 366 368 367 366 366 366 368 369 369 368 368 367 366
313 305 306 308 310 312 312 314 315 316 317 316 315 314 313 314 312 317 319 326 328 322 320 323 322 323 324 327 332 337 336 333 334 335 336 337 338 339 340 340 341 343 345 346 347 350 352 352 353 354 354 355 353 356 357 358 359 361 362 361 361 362 365 364 364 364 364 364 364 362 359 357 358 362 363 366 366 366 366 370 371 370 370 368 367 366
306 304 307 310 312 313 313 313 314 314 314 315 314 314 313 313 316 320 322 327 328 323 319 323 321 321 325 327 332 334 335 336 337 337 337 338 339 340 340 341 342 343 344 345 347 349 349 350 352 354 354 355 355 356 356 359 360 361 361 362 363 362 363 364 366 365 364 365 367 364 360 359 357 362 367 366 367 367 364 366 371 370 369 369 368 368
302 305 309 312 312 311 312 312 313 314 315 314 314 312 311 315 313 312 321 325 327 323 318 322 321 323 327 329 330 334 335 337 338 338 338 340 340 341 341 342 342 343 344 344 346 347 348 348 350 353 355 356 356 356 356 357 358 359 361 363 363 364 365 364 366 366 367 367 368 369 367 366 363 362 363 364 365 366 365 364 368 370 369 364 361 360
304 308 312 312 311 311 309 310 311 312 311 314 314 313 313 314 315 315 317 322 327 326 324 321 320 321 323 322 325 332 335 335 336 337 339 340 342 343 344 343 344 343 345 345 346 348 348 347 347 351 355 356 356 356 356 356 357 358 361 363 365 364 365 365 365 367 368 368 369 371 371 370 369 365 362 360 358 360 361 360 360 360 362 362 360 359
306 311 312 310 310 310 310 309 310 311 310 312 315 315 315 316 316 317 318 319 318 318 323 319 311 312 320 321 322 328 331 332 335 336 337 339 341 343 342 342 344 344 347 348 347 347 347 347 347 350 353 354 355 356 357 357 358 360 361 364 365 365 365 364 366 368 368 366 363 367 363 357 356 355 356 353 354 354 356 356 357 360 359 359 360 359
308 312 310 309 309 308 308 308 311 313 310 310 312 317 317 317 316 317 316 317 311 309 318 322 310 307 317 317 321 324 327 330 335 334 336 339 341 341 342 342 342 342 344 349 349 348 346 347 347 348 351 353 353 355 357 358 359 361 362 365 366 366 366 366 366 368 368 365 363 362 360 358 356 354 355 359 358 357 358 360 360 358 360 361 359 358
309 310 309 309 308 307 306 306 310 311 310 309 317 318 318 316 315 316 317 316 313 318 318 320 318 310 308 315 321 325 325 327 333 334 335 336 341 339 342 342 343 342 344 346 349 349 348 347 347 348 351 353 352 355 356 357 359 361 364 365 366 366 366 367 368 367 368 364 363 363 362 360 358 356 357 359 361 362 362 359 360 359 358 361 360 358
308 307 307 307 307 306 305 308 312 313 310 312 317 318 316 316 317 317 316 315 315 314 310 313 317 311 310 316 323 325 322 325 330 333 335 336 338 340 341 341 342 343 344 345 347 348 348 348 348 349 350 353 353 353 355 357 359 361 364 366 367 366 368 367 369 369 368 366 364 363 362 359 361 361 359 359 360 359 361 359 360 359 357 360 359 359
309 309 309 309 307 305 309 311 312 312 309 314 317 319 318 317 316 316 314 314 313 310 306 311 314 308 308 314 318 325 323 324 328 332 334 338 338 340 340 341 342 344 345 345 347 349 349 350 350 350 351 352 352 354 358 358 359 361 364 366 367 367 367 368 369 370 369 368 366 363 362 361 360 361 361 359 358 360 361 360 359 359 359 357 357 357
311 315 314 309 307 309 311 312 312 313 314 317 316 315 315 315 314 316 315 314 311 305 309 313 313 312 305 312 314 317 322 324 322 326 333 338 340 340 341 342 341 342 344 344 345 348 350 351 351 351 351 352 353 353 355 357 359 361 363 365 367 369 368 369 368 370 368 368 367 365 364 363 362 362 361 359 359 359 360 359 358 359 358 357 357 356
310 310 309 310 313 312 312 310 313 315 315 315 313 312 312 312 315 314 313 315 305 303 311 314 312 313 303 309 315 321 326 324 322 321 323 330 338 340 342 341 341 343 344 345 345 345 348 350 351 351 350 352 354 355 355 357 360 361 362 365 367 369 370 369 369 369 367 366 366 366 365 363 364 363 360 360 360 360 359 358 357 358 358 357 356 357
307 307 310 310 314 311 310 309 311 313 313 312 311 311 306 305 306 302 306 302 303 303 310 313 313 310 309 314 318 320 322 324 325 323 323 324 334 341 342 343 342 342 343 344 346 346 346 348 349 349 351 354 356 356 357 357 357 360 363 366 366 368 371 370 370 369 370 367 366 366 365 364 364 365 364 363 362 362 359 358 357 358 356 357 356 355
304 310 309 309 310 312 311 304 305 305 308 309 308 308 305 301 300 296 301 305 305 309 313 313 315 308 314 317 321 319 322 325 325 326 326 328 330 341 343 344 342 342 343 344 345 346 347 348 349 350 351 354 356 357 357 359 358 359 362 365 365 367 370 372 371 370 369 369 368 368 366 365 363 363 364 363 362 363 362 361 360 357 356 357 356 355
299 299 305 308 304 311 309 308 309 308 308 309 312 310 308 306 302 298 301 299 301 304 309 313 309 307 307 311 320 322 325 325 325 324 328 331 334 337 343 344 343 343 344 345 346 346 347 348 350 350 351 354 356 356 356 358 360 361 362 364 366 366 369 371 371 370 369 369 369 369 367 364 364 362 362 363 364 364 363 363 362 362 359 357 358 356
302 302 308 311 311 311 308 311 312 311 309 310 311 313 308 307 312 303 306 305 305 304 305 309 308 313 311 321 327 327 324 324 325 326 329 332 334 335 338 340 341 342 343 344 346 346 348 350 351 350 351 353 355 358 357 359 361 360 362 364 367 367 368 370 371 370 370 370 370 369 367 364 364 364 364 364 365 367 366 366 364 363 362 360 359 359
304 300 309 310 312 310 309 311 311 313 302 308 309 305 309 316 312 308 309 310 309 307 303 312 312 313 317 319 322 323 322 322 323 324 326 328 332 336 337 338 340 341 343 345 345 347 350 351 352 351 353 352 354 355 356 359 362 362 362 364 366 368 368 370 372 370 371 371 370 369 367 365 364 362 363 363 364 364 366 366 365 362 362 362 361 359
302 302 308 308 306 310 313 312 312 313 314 311 304 308 315 318 315 310 302 306 304 300 303 308 307 309 308 305 319 319 317 318 320 321 321 327 332 333 335 338 340 341 343 346 348 350 350 351 352 352 352 353 354 355 357 360 363 363 363 364 365 367 367 369 370 370 370 370 369 369 367 366 365 363 363 364 365 366 365 367 366 364 361 360 359 358
308 301 305 308 308 310 312 311 309 312 314 311 310 316 308 304 303 309 308 299 299 298 301 305 308 309 310 310 315 317 317 318 320 322 322 322 330 333 335 337 340 341 342 344 346 348 350 351 352 353 352 352 355 358 359 360 362 363 364 365 363 366 367 367 368 370 370 371 369 368 367 367 365 366 365 365 366 367 365 365 365 363 361 361 360 357
309 300 303 309 307 309 309 308 301 305 311 313 315 312 315 311 307 305 307 308 306 300 300 301 306 304 314 314 316 317 319 320 320 320 320 321 324 334 336 337 338 340 341 342 344 346 349 350 351 352 351 351 354 356 357 358 359 359 362 364 364 365 368 369 369 370 369 370 369 369 369 368 367 367 365 365 365 365 364 365 363 362 358 357 356 355
307 309 298 305 309 308 302 305 303 305 304 305 306 307 309 310 313 311 311 307 304 302 301 301 300 306 314 318 317 318 320 321 320 320 322 322 323 325 337 337 339 341 341 343 344 346 348 350 350 351 353 353 354 357 357 356 357 357 359 361 362 364 364 365 367 368 370 370 369 370 369 368 366 364 363 363 366 365 366 365 363 361 358 357 354 354
308 306 300 304 303 302 304 308 307 307 308 307 306 304 307 307 305 302 301 311 309 304 299 300 300 309 317 320 321 319 321 320 322 321 321 323 323 326 332 338 340 341 344 344 344 345 346 349 350 351 353 354 353 354 355 354 356 356 357 357 360 360 361 360 364 368 370 371 370 369 369 368 366 364 363 364 364 364 365 364 362 362 358 357 356 354
312 310 305 301 303 304 306 309 311 310 310 309 309 306 309 309 309 305 298 303 308 308 309 307 303 307 319 321 321 321 321 320 322 321 321 322 324 325 332 337 341 345 345 343 344 343 345 349 351 351 354 355 354 355 355 355 354 355 356 356 358 358 359 358 361 366 370 370 370 370 369 367 365 364 364 361 361 362 362 362 362 361 358 355 354 354
320 307 304 304 308 309 310 311 311 311 309 306 308 310 308 305 307 306 307 309 306 308 305 304 302 306 318 324 323 321 324 321 323 322 322 323 323 325 335 338 342 346 347 345 344 343 345 347 351 353 353 354 355 356 357 356 356 356 356 355 356 357 358 358 359 362 368 369 369 369 368 366 365 362 360 359 360 360 360 359 360 359 357 353 351 351
306 309 306 301 301 303 306 308 307 310 309 305 304 307 309 309 309 309 310 311 305 306 307 303 298 305 317 323 326 324 321 319 320 320 322 321 324 326 338 342 341 347 348 345 344 345 346 347 350 352 354 356 356 356 358 358 357 356 357 356 355 356 358 359 361 361 365 367 365 366 367 365 362 361 361 360 359 359 358 357 355 354 351 350 349 350
308 308 305 299 296 294 294 296 298 301 303 306 307 306 308 307 308 307 303 306 300 307 309 304 304 311 316 322 320 320 322 325 321 321 321 324 327 334 341 343 344 346 348 348 347 346 347 350 352 354 356 357 357 357 359 360 358 357 357 358 357 356 358 359 360 361 362 365 364 365 365 365 363 362 360 358 358 356 357 352 350 349 348 347 345 345
308 310 308 306 303 301 304 307 310 309 307 303 304 305 305 307 308 308 308 304 300 304 306 307 310 311 313 316 317 318 319 318 318 321 320 321 330 338 345 345 344 346 348 346 348 349 352 353 353 355 357 357 357 359 360 359 358 358 360 360 358 358 359 362 361 362 361 364 363 364 365 364 364 361 358 358 359 355 349 346 345 345 344 345 343 343
313 308 309 309 308 308 309 309 310 309 306 307 305 304 306 306 306 305 303 301 310 306 300 307 313 309 311 315 317 319 320 320 320 322 322 323 327 338 338 348 347 345 347 348 349 350 351 354 356 357 358 358 358 359 360 361 359 359 360 360 360 359 360 361 363 363 363 364 364 365 364 364 365 362 360 358 353 346 343 344 343 343 344 344 341 342
312 306 310 309 308 309 309 309 310 309 308 308 307 306 305 306 306 304 305 306 309 303 302 310 313 311 313 314 316 319 320 321 320 321 322 322 322 332 347 345 342 342 346 345 349 351 354 354 356 357 358 358 359 359 359 359 359 361 362 362 363 360 360 363 364 364 363 364 364 365 367 366 362 359 359 354 351 345 342 342 342 342 342 343 342 342
315 310 310 310 308 309 309 309 310 308 308 308 307 308 307 307 306 306 306 307 306 307 308 310 314 312 313 314 316 318 321 321 321 323 323 322 320 333 344 345 341 342 343 344 348 350 353 355 357 358 359 359 358 358 358 358 360 359 360 361 361 362 361 363 364 365 364 364 365 366 365 362 360 359 357 353 349 345 340 339 341 342 342 345 345 345
312 308 310 309 307 306 309 310 310 309 308 306 308 308 308 308 307 307 307 307 308 306 306 307 311 310 316 318 318 319 321 321 321 320 319 322 324 329 341 340 342 342 343 346 349 351 354 355 357 358 358 358 357 358 358 360 362 361 359 360 360 363 362 363 365 365 365 365 365 365 364 362 359 358 355 352 351 350 347 343 344 345 345 346 346 345
313 310 312 310 304 304 308 308 308 309 308 307 306 307 307 307 305 306 305 308 307 306 307 307 306 306 315 319 318 320 320 320 319 321 323 326 331 335 341 341 342 345 345 346 348 351 352 353 356 356 357 357 358 360 361 362 362 361 358 360 360 361 362 362 364 364 366 366 366 366 364 361 359 357 352 350 350 352 351 349 347 347 347 345 346 347
312 310 308 308 303 303 307 308 307 307 306 303 304 307 308 308 309 309 309 310 310 309 306 304 305 312 316 318 316 318 317 318 320 322 323 326 339 340 342 343 343 347 347 348 349 350 350 350 354 357 356 357 358 358 361 364 362 362 361 362 363 363 362 362 363 366 367 367 366 366 365 362 359 357 353 348 349 350 350 348 347 347 347 346 347 346
312 310 308 311 303 304 306 306 307 303 296 298 310 312 311 308 308 307 307 308 310 311 309 311 312 316 316 314 313 316 317 318 318 329 333 335 342 347 343 344 345 347 348 348 350 350 351 354 354 357 357 359 360 359 361 364 362 364 364 363 364 363 364 364 364 366 367 367 367 365 365 361 358 355 353 350 350 349 349 348 347 348 348 347 347 345
310 310 309 311 306 304 307 307 301 295 297 310 313 313 313 312 311 310 310 311 311 312 313 313 314 316 317 318 319 321 323 321 325 333 339 337 339 339 343 343 345 347 348 350 350 349 353 354 354 357 357 356 357 359 360 360 362 364 363 364 363 365 365 364 365 365 366 367 366 365 364 361 359 356 354 351 350 349 348 348 349 349 348 346 345 344
308 308 309 307 308 308 305 303 295 296 309 312 314 314 315 314 312 311 309 311 312 312 314 313 314 316 319 319 321 325 327 334 337 339 340 337 337 336 332 334 338 342 345 348 352 353 353 351 352 353 356 355 357 357 358 360 361 359 357 359 361 362 363 364 365 365 366 366 365 364 363 360 359 357 355 352 350 348 347 348 349 347 345 346 345 345
311 311 309 304 309 301 303 302 301 309 308 310 309 314 313 310 311 309 304 308 313 314 315 314 315 316 317 318 328 331 331 329 329 329 333 333 336 336 334 335 335 338 341 347 348 350 354 353 353 353 356 355 356 357 357 356 354 354 355 356 360 364 361 363 364 364 365 365 363 361 361 360 359 357 355 353 350 347 347 347 347 347 348 345 345 344
316 309 310 305 301 307 302 300 301 301 299 305 318 319 321 320 320 322 317 308 315 317 319 318 319 319 318 325 328 328 328 323 318 321 332 333 335 336 335 336 337 339 341 344 350 351 354 353 353 354 351 352 352 351 351 353 353 356 357 358 360 362 360 361 363 364 365 364 365 363 362 361 360 357 355 353 351 349 346 347 346 346 345 342 342 341
315 314 312 306 304 305 303 300 300 298 303 315 317 318 320 321 320 323 313 305 321 325 324 321 319 319 321 324 329 327 322 314 315 320 337 337 335 334 335 336 337 339 341 343 344 348 349 352 352 350 349 350 347 352 355 355 355 356 358 359 356 358 359 360 363 364 365 365 365 364 360 361 360 356 355 352 351 351 349 348 347 347 345 342 339 336
310 310 310 303 303 304 304 300 298 305 306 316 317 318 319 321 320 315 301 301 320 325 326 325 321 322 327 329 329 326 319 312 315 326 336 339 338 339 342 341 343 346 346 347 348 350 351 352 353 349 350 350 356 357 359 357 358 361 360 357 355 356 359 362 365 367 366 365 365 363 360 358 357 355 354 352 352 351 349 349 346 343 341 339 337 332
306 307 306 302 303 303 301 301 304 307 317 316 317 319 320 322 318 306 298 306 327 328 328 328 325 326 329 329 328 322 324 330 339 339 341 341 343 344 345 345 345 346 347 347 350 352 353 353 352 352 353 358 359 357 358 359 360 359 359 358 359 358 359 363 366 365 364 365 363 362 359 357 356 354 353 353 352 350 348 346 343 340 337 334 333 329
305 306 305 307 302 301 302 300 301 305 316 316 321 319 322 316 306 305 322 324 329 327 328 328 325 327 329 330 329 326 336 337 340 341 341 342 343 345 345 346 347 348 349 349 349 349 350 351 354 354 354 357 358 358 360 362 360 359 358 358 358 359 361 364 364 364 363 362 360 358 356 355 355 353 350 350 348 346 344 342 340 336 335 335 334 330
305 302 301 302 306 305 305 303 299 294 315 318 318 320 321 311 316 321 325 326 327 329 329 329 329 330 330 331 334 336 336 337 340 342 342 342 342 343 344 346 347 346 348 349 350 350 349 349 349 349 350 350 352 356 357 358 357 356 356 357 358 358 360 360 360 360 360 358 355 353 352 352 351 348 345 344 345 343 340 338 338 337 336 336 334 334
313 304 303 305 308 301 302 300 299 312 318 319 318 315 322 324 326 326 325 323 327 328 328 329 331 334 334 334 333 333 334 335 337 339 340 341 343 344 345 345 346 345 343 344 346 349 350 350 349 349 352 352 355 356 356 357 356 355 355 353 354 355 356 357 358 358 356 354 353 350 349 348 346 347 343 342 343 341 339 337 337 336 336 336 335 335
313 308 309 305 314 308 306 311 319 320 319 320 321 322 323 324 325 325 325 324 324 325 330 328 328 330 332 331 330 330 329 331 332 334 336 337 338 340 341 340 340 342 344 345 344 348 348 348 349 349 351 352 353 354 357 357 354 352 349 349 352 353 355 356 356 354 352 350 349 347 345 345 345 344 342 341 340 339 337 336 335 334 336 336 336 335
317 319 321 316 313 319 320 323 320 318 318 319 320 322 320 321 324 325 323 323 325 327 329 328 330 329 330 330 327 328 328 329 329 329 331 335 340 343 344 344 342 343 343 344 347 346 344 345 347 348 348 351 352 351 354 354 355 353 353 354 354 356 356 354 352 350 349 348 346 344 343 343 342 342 340 340 339 338 336 335 334 334 336 335 334 334
315 316 315 310 318 309 303 317 317 316 317 319 319 320 321 322 322 324 325 326 326 327 327 329 330 331 332 333 329 328 328 329 330 333 336 338 338 339 339 343 346 347 347 348 348 346 344 343 343 343 345 346 349 350 350 354 356 358 356 354 353 353 354 352 351 348 347 345 343 343 343 341 339 339 339 339 337 335 334 334 334 333 333 333 332 333
312 317 314 315 314 309 312 317 319 319 319 319 320 320 319 321 322 323 325 326 327 327 327 328 330 330 330 330 332 331 328 329 329 331 332 335 337 339 341 342 343 344 346 350 352 351 344 341 341 342 345 347 348 349 349 350 351 351 350 348 349 351 352 349 348 346 345 343 343 341 341 340 339 338 336 337 336 335 334 334 334 334 334 333 334 334
310 314 312 313 312 314 317 318 319 320 319 318 318 320 321 322 322 323 323 323 323 323 325 326 327 328 330 330 332 332 333 334 332 333 333 337 339 340 341 341 341 343 345 345 348 351 348 346 347 348 348 349 350 350 350 348 347 348 349 348 350 353 351 348 345 347 344 342 341 339 340 339 338 337 337 336 339 334 332 337 336 335 337 340 339 339
313 311 313 316 312 308 309 313 316 308 309 313 316 316 319 322 321 322 323 322 322 321 321 321 323 325 325 326 328 329 329 331 333 334 333 336 339 343 344 342 341 341 342 345 345 345 345 348 348 347 346 348 350 348 347 346 346 346 344 347 350 350 349 347 346 345 342 341 340 339 338 338 337 338 337 337 338 334 322 303 295 305 329 331 311 302
307 308 310 312 311 309 315 318 324 326 321 320 318 319 321 321 320 319 320 321 321 321 320 320 320 321 322 323 324 324 325 326 327 330 330 332 336 339 341 343 343 342 341 341 341 344 345 345 344 344 344 344 345 343 343 344 344 345 344 348 349 349 349 348 344 342 341 340 340 337 339 338 338 339 338 338 336 335 333 329 318 295 293 300 302 298
Wind_Speed
11 15 16 17 16 18 19 19 18 18 13 13 12 13 13 11 10 11 11 12 17 13 14 14 14 13 13 11 10 11 12 13 14 14 13 14 14 15 15 15 16 17 17 15 16 17 17 17 15 14 13 13 14 14 14 14 15 14 13 13 13 11 12 11 9 9 9 9 9 8 9 9 8 8 8 7 7 8 7 6 6 5 5 5 6 5
12 15 16 18 19 18 19 18 19 18 16 12 12 14 12 13 10 11 11 12 15 13 11 14 13 14 13 10 8 10 13 14 15 15 15 15 15 14 16 17 17 16 13 16 15 16 17 15 17 15 13 14 16 15 15 15 15 14 15 14 13 12 12 12 11 10 10 9 9 8 9 9 8 8 8 8 8 7 6 6 6 6 6 6 6 6
13 17 16 18 17 15 17 19 20 20 18 15 13 11 12 11 10 10 7 9 12 12 8 11 13 13 13 12 11 12 14 12 13 15 15 16 16 15 15 17 16 16 15 15 16 18 17 19 18 16 15 15 16 16 16 15 15 15 15 14 13 12 12 12 12 10 10 10 9 9 8 9 8 8 7 7 6 6 7 6 6 6 6 6 7 7
13 15 18 16 17 18 17 19 20 21 18 14 14 13 12 11 9 10 9 11 13 10 9 10 12 10 11 13 14 13 14 13 14 15 15 15 16 17 17 16 16 17 16 17 18 18 18 19 18 16 15 15 15 15 15 16 17 14 13 14 14 13 13 12 12 11 11 11 10 10 8 8 8 7 7 8 7 7 7 7 6 7 7 8 7 6
13 9 16 15 17 17 18 20 21 17 16 17 17 14 13 13 12 12 10 12 10 11 8 9 9 9 11 13 13 14 15 14 14 15 15 15 16 16 16 17 17 18 17 17 18 18 18 19 19 19 17 16 15 15 15 16 15 12 15 15 15 13 13 12 12 12 11 10 9 8 8 8 8 8 7 7 7 8 7 7 8 8 8 7 6 5
16 9 10 19 15 16 17 16 19 17 16 16 19 18 14 13 14 17 12 12 9 10 10 10 9 11 11 16 16 12 12 16 15 16 17 17 16 16 17 18 17 18 17 18 19 19 19 19 19 19 18 17 16 16 15 15 16 15 14 15 15 13 12 13 14 13 11 10 9 9 9 9 9 8 8 9 8 8 8 8 7 8 8 6 6 5
11 11 11 14 17 18 20 17 17 19 15 16 14 19 17 15 12 15 13 13 12 12 9 12 11 10 8 12 14 14 14 16 15 18 18 18 17 17 17 17 17 18 18 18 18 18 19 19 19 20 19 18 18 16 15 15 15 16 15 15 15 14 12 12 13 14 11 12 11 11 11 10 9 9 8 7 7 6 6 6 6 5 5 6 6 6
13 13 13 15 18 18 17 17 17 19 16 15 13 16 18 18 12 14 14 15 12 9 6 10 9 9 11 10 10 10 14 16 17 18 19 18 19 19 19 19 19 18 19 17 18 18 18 19 20 20 20 18 18 17 16 15 15 16 16 15 15 13 13 12 12 13 13 12 12 11 11 10 10 10 8 8 7 7 7 6 7 5 5 6 7 7
17 14 14 15 16 16 18 17 16 19 17 14 15 14 16 15 14 15 15 15 13 10 11 12 12 10 12 10 8 10 13 16 18 18 19 20 20 21 21 20 21 20 19 19 17 19 19 19 20 19 19 19 19 18 16 16 15 15 15 15 15 14 13 12 14 13 14 13 12 11 11 11 10 10 9 8 8 8 7 8 7 6 6 6 7 8
9 17 16 15 14 15 15 17 18 18 17 18 7 10 13 15 15 15 14 13 13 14 15 14 14 11 12 11 10 11 13 13 17 18 19 20 21 21 20 21 21 19 18 19 19 18 19 19 19 19 19 19 18 17 16 16 15 15 14 15 16 16 13 13 14 13 14 14 12 12 12 12 11 9 9 9 8 8 7 8 8 7 6 6 7 8
6 11 14 14 16 13 14 16 18 18 19 10 11 11 12 13 13 13 12 13 14 18 16 17 16 14 12 11 12 11 11 14 12 11 13 16 19 20 20 21 19 19 19 18 19 19 19 19 19 19 19 18 18 17 17 16 15 15 15 16 16 16 13 14 14 15 15 14 13 12 13 13 13 13 11 10 9 8 8 8 8 7 7 7 8 8
9 9 11 12 15 12 13 15 13 13 18 13 9 12 10 10 7 8 9 9 13 14 13 18 17 16 14 12 11 10 14 13 12 12 11 15 19 19 18 18 20 20 18 18 18 19 19 18 19 18 19 19 19 18 18 17 16 15 15 14 16 16 16 14 14 15 15 14 14 14 14 14 13 13 11 11 11 10 9 9 8 8 7 8 8 8
16 13 10 12 12 17 15 13 13 15 17 15 14 14 15 10 9 12 12 14 15 14 14 17 19 15 17 15 10 6 9 11 12 11 11 9 15 18 19 20 18 18 19 18 17 17 17 18 18 19 19 18 19 18 19 18 17 16 15 16 16 16 16 15 15 16 16 15 15 14 14 14 12 13 13 12 12 11 11 9 10 9 8 8 8 8
13 14 16 12 13 17 16 16 14 15 17 17 17 15 15 16 14 12 13 10 11 14 17 13 14 15 10 12 16 18 15 14 13 13 13 9 7 13 17 18 17 18 19 19 18 18 18 17 18 19 18 18 17 19 19 18 17 15 14 16 17 17 16 15 15 16 16 16 15 14 13 12 12 13 13 13 12 11 10 10 10 10 9 9 9 9
12 15 19 19 13 18 20 18 15 12 16 17 17 17 15 15 14 13 12 14 13 11 14 15 11 11 13 9 11 13 16 15 15 15 13 9 10 10 14 16 19 20 20 18 18 19 19 19 20 18 18 18 17 19 19 17 17 15 15 16 17 17 17 17 16 15 16 15 15 14 13 12 13 13 13 12 11 11 11 10 11 10 9 8 8 8
18 12 11 22 10 17 20 20 18 15 14 17 16 15 17 18 13 16 12 13 12 12 14 14 11 9 12 6 4 4 5 8 9 11 10 10 10 10 12 15 16 17 19 19 19 20 20 20 19 18 18 18 17 19 18 18 16 16 16 16 17 17 17 16 16 16 16 15 13 15 14 15 15 12 12 11 11 10 11 11 10 9 9 8 8 8
10 13 10 19 21 17 20 19 19 15 14 14 16 20 17 13 18 16 14 18 14 14 17 10 9 12 11 11 13 13 13 13 12 12 12 11 11 12 13 15 17 17 18 19 20 19 20 20 20 19 19 18 19 18 18 18 18 19 17 16 17 17 16 17 17 16 15 15 15 16 16 15 16 16 15 13 13 13 12 11 10 9 9 8 7 7
8 8 11 12 23 18 16 18 20 20 14 10 18 17 15 16 15 15 16 10 12 17 13 13 14 12 14 13 12 19 20 19 17 16 15 12 11 14 14 15 16 18 18 19 19 19 21 22 23 21 20 21 20 20 20 20 19 18 18 18 18 17 18 17 17 17 16 16 16 15 16 16 16 15 15 13 12 12 11 9 9 9 8 9 8 7
11 10 12 17 16 16 16 17 19 21 21 18 13 14 17 13 16 15 13 18 18 19 13 14 17 15 15 13 9 9 12 15 15 14 11 9 12 15 15 16 16 17 16 17 19 18 18 19 19 20 21 22 21 20 20 19 19 17 17 18 18 19 19 19 16 15 14 15 13 13 15 17 17 14 12 13 13 12 12 11 9 9 8 8 8 8
9 10 8 15 17 17 17 16 17 18 20 23 14 13 17 14 15 15 15 12 13 16 15 17 19 15 13 14 13 13 11 9 6 7 6 8 11 13 12 13 15 16 16 17 17 18 18 20 22 22 22 22 21 20 19 20 18 20 19 18 18 18 17 17 17 15 15 15 14 13 14 16 16 13 13 14 13 13 12 11 10 10 9 9 9 8
9 9 11 10 17 15 16 15 19 18 18 19 17 14 14 14 10 13 16 18 16 16 16 13 15 13 12 11 16 16 13 11 12 13 12 11 12 12 12 12 13 15 16 16 17 18 20 21 21 21 21 20 20 19 19 19 20 20 18 19 20 19 19 19 18 17 15 14 15 15 15 15 14 15 15 15 13 14 11 10 10 10 10 9 9 10
10 11 13 7 12 15 15 17 21 22 19 17 16 18 16 14 16 19 19 17 18 17 13 15 17 10 8 10 11 13 15 15 14 14 14 15 16 13 11 12 12 13 16 17 17 18 18 18 19 19 18 18 19 19 20 19 19 20 20 19 19 19 19 19 18 16 15 14 14 16 15 15 15 15 14 14 15 16 12 11 11 11 11 11 11 10
11 6 10 12 10 12 16 16 20 23 23 20 18 19 19 17 14 16 16 15 17 20 20 20 16 15 10 7 11 14 15 18 16 16 16 14 15 11 8 10 12 14 16 17 17 17 16 16 16 17 19 20 20 19 20 19 18 19 20 19 18 19 19 19 19 17 15 14 14 16 15 15 14 13 14 16 16 15 13 13 13 12 12 10 9 10
12 10 10 13 11 12 14 16 16 19 22 23 21 19 19 21 20 18 15 13 17 17 16 19 20 14 9 8 8 9 9 11 13 15 14 13 14 10 8 9 11 12 13 14 14 14 14 14 15 15 17 17 17 17 18 18 17 17 18 19 18 19 20 19 18 17 16 15 15 16 15 15 15 17 18 19 17 16 15 13 11 10 9 8 7 8
12 10 11 11 10 10 12 13 15 14 16 16 17 19 21 21 25 22 18 14 18 22 21 18 22 13 11 8 6 7 12 16 16 15 15 16 15 12 7 8 9 10 11 13 14 13 13 14 16 16 16 16 16 16 16 16 17 17 17 17 18 18 19 18 16 17 16 16 17 17 16 18 17 17 18 18 16 16 14 11 8 8 8 8 9 9
13 11 13 13 14 15 15 16 16 16 17 14 17 22 24 25 25 20 20 17 18 17 24 22 18 12 13 11 15 14 12 11 10 10 11 11 12 10 3 5 7 8 10 11 12 13 15 14 14 14 16 15 16 16 15 15 16 16 16 17 17 17 16 17 16 17 16 16 17 17 19 19 17 18 19 18 14 10 6 4 6 8 9 11 13 12
8 10 13 15 15 15 13 11 10 12 12 17 19 23 24 24 25 24 16 18 21 12 16 14 16 16 18 17 14 15 16 17 15 15 16 15 13 8 6 6 6 8 9 11 12 11 11 13 16 17 16 16 16 16 15 16 16 16 15 16 16 15 15 14 15 15 16 16 17 16 18 17 16 15 15 12 7 10 11 11 11 11 12 11 13 14
8 11 14 17 19 17 16 15 14 16 17 18 21 22 23 23 23 27 23 22 16 14 18 11 15 22 19 18 15 16 15 15 15 13 12 13 11 11 10 8 8 8 9 10 13 14 16 15 15 16 17 16 16 16 15 15 15 15 15 15 15 15 14 12 13 14 14 14 14 14 15 15 12 10 10 11 13 14 12 9 11 12 14 14 16 17
9 12 14 16 19 20 21 21 19 18 17 17 18 20 21 23 24 24 24 25 22 19 19 12 15 19 19 23 22 18 13 16 14 14 16 18 20 10 8 9 10 11 11 13 14 15 14 15 16 16 16 16 16 17 16 15 15 14 13 13 13 14 14 12 12 13 14 13 12 12 12 11 11 11 11 13 11 12 9 12 16 18 18 16 17 14
7 11 14 16 19 20 22 24 23 24 20 21 22 21 22 24 25 26 25 25 27 23 21 17 17 20 20 21 23 25 18 17 15 14 15 17 18 13 10 10 12 12 13 14 15 16 16 16 15 15 16 16 17 17 16 15 14 15 15 14 14 13 13 12 12 13 13 13 12 10 11 11 11 13 13 14 14 15 17 18 17 15 13 12 13 10
7 8 11 14 15 18 21 23 24 25 24 24 24 24 24 24 25 26 24 24 25 26 27 24 24 20 15 17 20 22 21 19 17 18 19 17 18 16 12 12 11 12 13 13 14 14 14 14 15 15 16 17 17 17 16 14 14 14 15 14 14 13 13 13 12 13 13 12 11 10 11 11 12 14 13 14 14 14 15 15 11 11 10 11 11 12
7 7 7 8 11 12 16 20 22 23 25 26 24 25 25 24 24 23 22 20 21 21 22 25 23 19 15 15 16 18 19 20 19 17 16 15 16 14 13 12 12 12 12 13 14 14 14 15 16 18 19 18 18 17 15 15 15 15 15 14 14 13 13 13 13 12 12 12 11 11 12 11 13 14 15 15 16 15 15 14 14 13 12 11 12 11
5 5 6 5 9 11 12 15 19 21 21 22 23 22 22 23 21 20 21 23 23 22 20 20 20 15 15 16 18 18 21 21 19 18 18 17 12 12 12 13 13 13 13 13 14 15 15 17 18 19 18 16 16 16 16 15 14 13 13 13 12 11 12 13 13 12 11 11 11 11 11 13 14 15 17 17 17 15 13 14 15 15 13 13 11 10
8 5 7 4 8 8 11 14 12 14 19 17 12 19 22 23 23 25 22 23 23 21 17 17 16 16 18 20 22 21 24 23 20 16 13 9 8 8 11 11 10 9 9 11 12 13 13 12 12 13 15 15 16 16 15 14 12 11 11 11 11 11 11 12 12 11 11 11 12 11 11 13 14 15 17 17 16 15 15 16 17 16 14 11 11 12
11 7 7 4 7 8 8 9 10 16 15 11 13 15 19 22 22 23 23 23 22 22 21 20 17 16 15 16 17 18 18 17 16 13 9 8 7 7 8 9 8 8 8 9 11 13 13 13 12 11 13 14 14 14 13 13 12 11 11 11 11 11 10 11 11 11 11 11 11 11 11 13 13 14 16 16 17 15 15 16 16 15 13 11 12 13
11 12 7 6 5 7 8 9 13 13 9 10 8 10 7 11 17 21 23 23 23 23 20 21 19 16 16 16 16 13 12 6 3 3 4 5 7 8 10 10 10 10 10 7 7 9 11 13 13 12 12 11 11 12 12 12 12 12 12 12 12 11 11 11 11 11 10 11 11 11 12 13 13 13 14 15 15 17 16 16 15 14 11 10 11 10
14 10 10 8 7 7 8 10 12 8 11 11 10 8 9 11 14 16 16 17 21 17 19 17 17 18 17 15 9 6 4 4 6 7 8 8 8 8 10 9 9 10 11 10 10 10 10 10 11 12 13 12 12 12 12 12 13 12 12 12 11 11 11 11 11 10 10 10 11 11 12 12 12 13 14 14 15 15 16 16 14 11 9 10 11 12
13 14 10 6 3 8 11 7 10 12 13 11 5 7 7 7 8 9 8 15 14 17 18 17 16 17 17 11 8 7 7 6 10 10 10 9 8 9 9 8 7 7 9 10 9 11 13 14 15 15 14 15 13 13 11 12 12 12 11 11 11 11 10 10 10 9 9 10 11 10 11 11 11 12 12 13 14 14 14 13 11 11 9 11 7 8
13 13 11 11 7 6 8 10 8 11 5 8 8 8 8 7 6 5 6 15 9 12 13 16 18 18 18 14 10 10 8 11 12 11 8 7 7 7 8 9 9 8 9 10 11 11 13 13 14 17 16 15 14 12 12 13 13 12 10 10 10 10 9 9 8 9 9 10 9 9 9 10 10 11 11 12 11 10 11 8 7 6 6 6 6 7
15 12 12 14 12 7 8 9 9 9 4 4 11 9 9 7 5 4 12 14 11 15 14 14 16 15 13 11 11 12 11 13 14 6 8 7 6 5 6 7 8 8 9 10 11 12 12 13 13 14 16 15 13 12 12 12 11 11 9 9 8 9 8 8 7 8 8 8 9 9 8 8 9 9 9 8 8 7 7 6 7 9 9 11 9 8
14 12 14 16 13 12 10 7 8 10 4 7 12 10 8 4 6 10 13 3 5 3 7 10 13 11 9 11 11 11 10 2 4 7 7 9 9 8 7 7 9 9 11 12 14 15 14 13 13 14 15 14 13 12 11 11 11 10 9 9 8 8 8 8 7 7 8 8 8 8 8 7 7 7 7 6 6 6 6 6 8 9 9 10 9 8
15 13 12 14 16 16 13 10 8 8 4 7 8 8 4 4 8 10 3 4 4 3 4 7 9 10 10 11 11 8 6 6 7 8 10 10 11 11 11 12 13 13 12 13 13 13 13 13 14 16 16 14 14 13 12 12 12 11 11 9 9 9 8 8 7 7 7 7 7 7 7 6 7 6 7 7 7 7 7 7 8 8 9 10 10 10
13 13 15 15 11 12 10 12 7 8 5 8 9 6 4 10 3 3 3 4 3 2 2 2 4 7 10 10 10 12 11 10 10 11 12 13 14 15 15 15 16 16 16 16 14 13 13 14 14 15 16 14 14 12 11 13 13 11 10 10 9 8 8 7 7 7 6 7 7 7 7 6 8 8 6 6 7 8 8 7 9 9 10 10 11 12
12 12 11 13 13 13 13 13 8 1 4 6 5 3 2 6 4 3 3 2 4 5 5 6 5 7 10 13 14 15 15 15 14 14 14 15 15 15 16 16 17 18 18 18 17 16 15 15 14 14 14 12 12 11 11 12 12 11 10 11 10 10 10 9 8 8 8 8 8 8 7 7 7 7 7 7 8 9 9 9 8 9 8 8 10 10
9 9 8 9 7 9 8 5 5 6 6 5 3 1 2 1 1 1 3 6 7 9 9 10 10 10 13 16 17 17 16 16 15 14 14 15 15 15 16 16 16 17 17 16 16 15 16 15 16 14 13 11 11 9 8 9 13 12 10 6 7 9 10 10 10 9 9 9 9 8 8 7 7 7 8 8 8 8 8 10 9 9 9 9 9 10
4 4 2 6 4 6 8 6 6 8 8 5 2 2 3 2 5 5 6 7 8 8 8 10 10 11 11 12 15 15 16 16 17 16 15 14 14 14 14 15 15 16 16 15 14 15 16 16 16 15 14 11 11 10 8 7 9 13 12 11 9 8 8 10 10 9 9 9 10 10 9 9 9 9 10 9 8 9 8 10 9 8 8 9 10 9
7 12 3 9 9 7 3 4 7 11 9 6 5 5 6 8 7 7 7 7 9 10 12 13 11 11 11 11 14 15 17 16 16 14 12 11 12 13 13 13 12 12 12 13 11 12 13 14 12 13 14 12 9 9 9 8 7 8 9 10 10 10 10 10 10 10 10 10 9 9 9 10 9 9 9 9 9 9 8 8 8 8 9 10 10 9
3 13 9 5 12 8 7 9 8 10 10 6 5 4 7 9 9 9 8 8 9 12 12 12 11 10 9 10 11 13 15 15 15 12 12 11 11 11 12 12 11 11 11 10 10 10 11 12 13 12 11 9 7 6 7 6 7 7 7 8 9 9 10 11 11 11 10 11 10 9 9 8 10 9 9 9 9 9 9 8 8 8 9 10 9 8
9 11 1 8 5 9 12 9 8 9 9 7 8 9 9 8 8 9 9 11 13 14 15 14 14 12 11 12 11 13 14 14 13 13 13 11 11 10 10 10 10 10 10 10 10 10 10 10 10 10 10 9 7 7 6 7 8 8 8 8 8 9 9 10 11 10 12 11 10 9 9 8 10 8 9 9 5 6 6 2 2 5 9 4 2 1
6 2 8 4 6 10 8 8 12 12 5 3 8 9 10 10 8 11 12 13 13 13 13 15 14 14 14 14 14 14 14 13 13 12 14 12 11 11 10 9 9 10 9 8 7 9 9 9 9 9 8 7 6 6 6 7 6 7 8 8 8 8 9 9 9 10 10 9 9 10 9 8 8 8 8 8 7 7 6 10 11 10 3 4 7 9
5 7 6 1 4 5 3 10 2 9 13 8 6 6 8 10 10 12 13 13 13 14 13 14 13 13 14 14 13 14 14 13 13 12 13 12 11 10 10 10 9 8 8 6 7 7 8 7 7 7 8 6 5 5 5 5 6 6 7 7 8 8 9 9 8 8 8 8 8 8 8 8 8 8 7 7 8 8 7 6 8 14 13 9 6 7
Wind_Direction
170 201 199 206 206 202 208 211 216 222 227 224 220 224 230 230 217 201 204 179 191 195 205 209 213 222 222 201 185 190 188 198 205 207 205 202 199 198 199 199 200 199 202 193 192 194 194 194 193 195 196 199 201 201 201 202 204 205 207 205 210 207 208 209 204 204 207 207 208 210 214 219 214 217 212 213 218 225 229 226 213 206 220 219 222 225
195 212 209 207 210 205 207 212 218 227 230 229 226 224 230 231 225 182 191 179 194 207 203 212 220 223 227 225 190 191 195 200 202 205 209 208 205 202 201 202 202 203 203 194 189 193 195 196 194 195 198 200 201 201 202 202 204 205 207 208 208 207 208 211 212 212 212 212 213 212 217 223 223 217 216 216 217 220 225 207 202 202 214 210 204 210
206 217 211 204 209 213 208 210 215 221 226 225 234 227 233 220 226 135 181 190 193 212 226 201 223 225 224 218 209 205 204 207 207 208 209 209 209 205 203 204 203 204 202 195 192 192 196 197 197 196 200 202 206 204 204 205 204 205 208 210 209 210 209 211 211 212 214 215 217 219 221 224 228 225 229 235 235 234 231 217 207 211 209 209 208 207
206 219 214 203 209 217 212 209 211 218 226 228 224 233 225 223 195 187 195 190 197 208 216 215 230 235 233 232 227 218 215 210 210 211 212 210 212 209 205 203 204 205 200 197 193 194 196 197 199 198 200 202 203 205 205 205 207 207 208 209 210 212 213 214 212 211 214 215 215 218 224 225 234 235 227 237 235 232 230 224 215 209 212 217 230 226
211 211 206 210 206 214 213 205 211 216 219 224 233 229 232 214 201 213 184 200 193 210 243 221 234 242 236 234 227 221 221 219 211 211 213 212 213 214 212 208 205 205 200 199 197 197 195 197 199 199 199 200 201 203 205 205 205 206 207 208 209 211 212 213 211 208 211 210 208 206 212 223 225 233 234 232 229 224 226 230 215 217 218 225 234 232
217 211 208 203 200 207 216 211 212 213 222 221 223 233 234 219 205 213 185 194 202 211 209 215 237 242 224 229 237 231 214 217 211 211 210 207 209 208 212 212 208 209 202 199 199 199 198 198 198 199 199 202 202 204 205 204 205 205 206 207 208 211 212 212 212 209 208 211 209 199 208 217 225 228 223 224 225 223 220 228 226 216 219 225 225 216
221 157 201 197 205 210 216 223 211 215 224 225 213 218 230 238 221 215 191 200 214 226 198 208 245 246 240 230 227 225 227 217 211 212 211 205 204 205 208 209 208 207 204 202 203 201 201 198 198 199 200 202 204 204 203 203 204 204 207 206 206 209 210 210 210 207 210 216 218 220 222 223 223 225 225 225 231 235 226 225 229 222 204 208 213 207
212 185 192 207 209 209 209 217 212 210 223 228 220 209 220 231 227 211 200 216 233 228 197 215 227 251 251 240 240 224 230 226 217 215 213 207 204 204 204 206 206 206 206 202 203 202 203 199 199 200 198 201 205 203 202 203 204 205 206 206 207 209 211 208 207 207 209 218 217 218 222 224 226 226 226 215 219 223 229 222 227 216 206 203 212 213
192 196 198 192 211 210 214 212 208 209 220 229 225 215 211 218 221 220 209 222 230 238 236 224 218 242 254 252 235 216 220 218 222 220 215 213 209 205 203 204 205 205 204 204 201 202 200 199 199 199 199 201 205 203 202 203 204 205 206 208 208 210 210 210 206 205 208 214 216 217 220 223 224 226 227 221 216 220 218 223 216 215 207 197 210 215
189 211 201 202 203 216 215 210 216 207 218 224 274 207 212 213 223 227 222 223 231 231 233 225 214 238 247 241 221 212 229 228 230 224 220 213 210 208 206 203 203 202 202 204 205 203 200 198 196 197 198 199 202 204 203 204 203 204 204 206 208 210 210 209 206 206 208 209 211 215 219 222 222 222 225 226 216 215 215 219 216 206 201 209 206 215
182 201 209 204 209 215 213 216 215 212 220 217 217 218 215 217 223 222 228 217 221 230 228 228 214 217 250 237 219 207 217 226 237 230 225 219 212 210 208 203 199 199 199 201 203 202 201 198 195 193 196 196 198 202 201 203 204 203 204 205 207 208 208 206 207 208 211 209 209 213 216 220 222 221 222 221 220 217 213 216 214 209 205 215 216 213
171 178 198 207 211 212 220 216 211 217 215 213 212 213 211 217 224 231 227 233 242 231 223 231 233 201 242 242 243 212 227 235 241 245 227 222 215 207 206 206 202 198 197 197 200 201 199 198 196 193 194 193 193 194 197 200 200 203 204 203 205 206 205 204 204 206 211 211 210 213 215 221 224 225 223 220 220 213 213 216 216 215 214 216 216 217
216 198 192 194 202 212 198 215 193 209 214 213 221 215 211 194 200 212 214 214 225 236 222 223 233 220 224 252 266 226 222 231 237 250 261 241 212 202 201 204 202 198 195 195 197 198 197 196 195 194 191 189 189 191 193 196 199 200 201 201 202 205 202 203 203 205 207 210 211 211 214 219 226 228 227 224 223 216 218 217 216 210 209 210 214 210
216 212 204 191 186 203 204 203 195 200 204 209 213 209 205 218 207 222 212 226 234 220 241 237 227 241 245 239 236 251 241 231 248 259 260 257 240 201 201 198 200 199 195 195 193 194 196 195 194 194 192 189 188 190 190 194 198 196 198 199 202 204 200 199 202 203 206 209 210 211 212 215 223 226 228 227 223 219 216 215 218 217 213 213 215 220
202 198 211 198 202 183 207 213 205 202 194 208 213 214 215 222 215 216 217 217 221 233 215 206 222 225 234 227 237 235 241 251 252 257 258 240 226 218 202 198 197 199 198 193 191 193 193 191 191 192 193 191 190 190 191 192 195 194 196 197 200 202 200 198 199 200 205 206 206 205 207 214 221 224 224 225 225 223 219 217 218 219 222 224 221 221
217 233 198 201 206 179 204 205 217 198 206 207 213 224 222 220 222 233 223 227 226 224 231 198 220 223 237 242 182 219 238 249 258 257 250 232 216 211 202 201 200 198 198 195 192 192 191 187 188 191 192 193 193 192 193 193 191 195 196 198 199 201 199 198 198 201 202 203 203 203 204 212 219 221 223 223 222 222 217 214 216 217 221 225 224 220
208 228 200 186 204 198 198 197 210 201 209 189 208 217 221 219 230 232 242 243 245 231 236 212 210 228 246 253 241 248 252 251 248 245 235 231 211 202 203 202 201 199 197 196 195 192 188 185 188 190 190 191 193 194 195 192 191 194 194 196 198 199 199 198 199 201 201 202 202 203 205 210 216 219 221 222 221 222 216 211 215 219 221 220 199 193
246 219 191 186 199 200 198 197 209 210 225 194 212 214 219 230 240 233 233 200 224 233 231 223 219 227 224 240 228 235 242 244 243 248 243 229 207 204 205 202 200 201 199 197 197 194 189 188 189 189 190 190 191 192 193 192 192 192 194 195 195 196 198 200 199 199 199 201 204 204 205 209 214 216 220 222 222 219 215 200 205 213 215 211 191 192
219 243 197 192 201 190 199 200 208 219 213 228 220 195 217 187 216 227 235 228 220 225 241 230 235 235 229 232 215 205 221 222 229 235 244 225 209 212 210 204 203 202 199 197 198 196 196 194 191 190 191 191 191 190 191 192 191 192 194 196 197 197 198 199 200 200 201 201 202 205 204 208 213 210 215 220 220 216 213 196 190 196 199 195 188 187
185 243 216 180 203 188 200 199 209 201 205 226 235 222 213 229 223 215 217 239 243 240 230 237 234 234 219 238 223 214 209 220 224 261 274 263 235 216 212 203 198 197 199 198 197 197 197 198 196 193 191 191 190 189 190 192 194 196 194 195 199 199 197 197 198 197 200 200 202 201 201 206 208 204 216 221 217 214 206 190 185 183 175 184 184 187
221 199 256 173 197 188 204 196 210 204 194 204 212 221 211 219 221 230 229 223 231 239 244 247 236 229 219 225 231 228 227 227 248 255 255 259 265 245 213 204 199 197 195 197 197 198 199 200 200 197 193 191 189 188 192 193 196 199 196 196 197 197 198 198 198 198 198 198 200 200 198 197 198 204 214 220 214 215 196 182 177 181 180 179 185 187
222 199 225 203 186 207 212 200 215 213 208 205 203 213 219 204 208 219 227 220 225 235 230 239 246 246 206 205 217 223 238 238 239 253 260 263 258 250 225 207 199 195 196 196 198 200 202 201 200 197 192 191 190 190 194 196 196 199 200 199 198 199 200 201 199 199 197 197 196 197 196 195 193 200 205 208 213 213 191 179 180 178 177 184 189 184
225 209 218 227 201 216 218 212 205 222 222 217 206 214 213 223 219 226 227 222 222 231 239 240 250 241 235 206 187 218 230 236 237 241 249 257 265 261 228 210 197 197 195 199 200 201 200 198 197 193 190 191 192 191 193 195 198 198 200 202 200 201 202 203 200 196 195 194 195 195 197 197 195 191 201 212 216 204 190 186 182 176 178 187 188 188
192 226 206 237 239 224 213 224 220 210 223 226 222 217 209 219 216 226 228 224 241 227 228 237 239 237 217 223 201 206 215 243 236 244 259 261 267 266 227 208 197 196 202 204 207 204 198 192 189 188 189 191 192 191 192 194 197 199 200 201 202 203 203 203 202 196 191 192 193 193 194 196 195 199 202 207 206 201 198 193 183 168 171 177 189 187
213 194 226 213 221 230 230 218 220 202 217 227 225 218 218 221 220 226 233 226 235 236 228 232 238 223 213 225 195 236 239 233 227 231 246 257 265 264 223 201 197 195 196 203 205 199 191 186 183 186 185 186 189 192 192 193 195 198 200 201 203 204 203 203 201 198 193 194 194 192 193 198 197 195 198 202 204 201 197 188 170 151 155 171 193 198
215 185 197 217 209 209 207 208 203 197 207 218 228 228 221 221 221 215 224 220 234 226 234 238 238 232 235 198 212 217 226 236 222 238 253 250 253 265 226 184 183 190 198 200 200 192 188 183 179 180 182 185 187 190 191 192 194 197 199 202 204 204 202 201 200 200 196 195 196 195 197 199 195 194 197 201 202 191 156 144 128 143 165 183 191 190
230 224 204 219 222 222 221 222 213 218 201 218 217 224 226 220 224 228 230 230 232 219 232 239 246 242 227 213 209 213 210 223 241 238 235 239 239 239 223 211 199 195 194 193 194 190 180 180 183 181 180 184 186 187 188 191 194 196 197 201 204 203 200 198 199 198 199 198 200 199 200 198 194 191 189 183 147 116 136 155 170 173 183 185 193 194
230 236 211 221 237 246 239 226 224 219 229 215 220 220 225 227 222 228 225 228 234 234 235 229 226 240 234 237 217 211 216 224 235 243 239 242 251 242 225 190 189 193 192 186 186 188 188 185 181 181 183 185 188 189 190 192 194 195 196 198 199 200 198 195 197 194 200 202 203 201 201 200 188 173 175 154 142 134 128 169 181 190 192 188 195 197
228 236 228 228 230 234 239 244 233 229 227 236 224 223 219 221 227 227 232 234 232 235 241 226 220 229 227 234 241 234 225 238 234 232 241 252 261 253 195 192 198 197 186 190 195 193 189 185 186 185 184 187 188 190 192 193 195 195 195 197 197 199 198 191 192 195 197 201 203 202 195 198 191 182 159 129 127 117 159 197 196 200 198 193 197 197
232 231 244 240 244 237 234 234 236 238 232 226 233 227 226 224 224 226 232 234 234 240 243 242 236 227 231 229 232 242 240 241 246 248 253 252 255 255 228 203 208 200 193 193 197 196 193 190 184 184 183 187 191 191 192 193 192 192 192 193 193 197 196 191 191 195 198 199 200 195 203 190 153 161 156 151 151 159 188 208 207 209 201 196 194 183
240 219 223 239 241 242 238 235 235 235 235 234 228 232 233 229 229 227 229 231 234 239 240 237 242 242 230 231 233 240 239 242 246 244 249 250 249 247 234 224 214 207 200 195 195 199 191 186 184 181 184 189 191 191 191 189 188 190 194 193 192 190 193 190 189 193 197 195 194 192 190 167 159 159 169 159 169 185 201 209 213 213 212 202 196 192
225 232 229 239 248 241 230 234 234 238 240 236 231 227 229 232 230 227 228 225 229 230 232 238 239 235 227 225 232 234 233 236 242 242 241 242 243 241 232 227 218 209 202 197 196 192 186 186 185 185 187 188 187 187 188 187 187 189 193 189 191 187 188 192 189 190 192 201 198 189 192 187 164 166 172 168 182 197 201 209 214 213 210 207 201 194
216 238 232 235 243 249 242 232 232 233 240 241 233 228 228 230 238 239 235 228 227 230 230 228 236 235 233 229 228 224 231 232 235 241 244 245 245 243 234 230 221 209 202 195 188 190 191 190 189 188 186 183 185 187 189 186 186 188 188 186 186 185 182 185 190 190 193 195 194 195 194 189 166 173 179 182 189 199 202 209 214 214 208 203 196 186
201 243 228 236 247 254 255 251 248 241 231 230 224 226 227 232 227 233 235 230 227 225 235 235 235 230 225 227 227 226 228 234 231 230 234 238 235 232 243 247 247 235 213 199 196 199 198 191 186 186 186 184 184 184 184 186 185 181 181 179 174 180 183 184 190 190 190 190 189 196 193 189 168 172 181 193 194 195 203 211 217 217 210 200 188 190
213 212 227 240 246 241 240 243 233 237 238 235 228 223 226 230 234 239 240 239 235 227 231 238 236 237 227 224 226 227 233 230 218 216 198 213 229 242 246 246 239 236 230 214 202 195 188 187 180 175 180 187 185 179 179 178 179 170 170 175 178 182 186 186 189 189 188 191 193 188 191 191 176 179 188 193 200 198 204 213 220 220 212 202 194 193
220 217 226 244 250 249 241 236 238 235 243 260 273 254 228 238 239 239 240 240 241 239 231 232 233 232 230 228 228 224 226 205 174 194 211 213 216 228 237 238 232 225 218 215 209 191 174 176 171 169 171 174 175 173 174 171 174 178 182 182 178 181 182 183 185 186 187 185 189 190 191 193 180 190 194 195 200 208 209 212 218 215 203 197 196 197
229 215 217 240 232 244 249 232 251 281 264 233 226 215 203 232 228 228 239 234 231 232 239 236 230 228 233 233 201 173 188 208 229 226 209 214 210 225 234 236 231 222 217 205 187 174 164 163 167 163 156 158 166 164 172 175 181 180 173 173 171 175 179 180 182 185 183 186 189 190 193 193 180 191 196 199 203 208 215 220 218 207 191 191 189 191
211 219 199 221 234 230 239 241 240 233 239 231 54 53 22 4 350 345 271 248 222 218 220 224 225 228 231 213 194 162 152 208 231 226 198 198 194 207 218 227 230 223 203 191 180 171 166 163 157 152 161 158 172 177 181 172 168 166 164 164 164 171 175 177 178 182 181 185 187 185 189 184 182 197 202 205 207 211 215 219 221 220 207 210 187 195
199 212 193 204 223 256 248 244 247 255 238 45 26 5 3 354 332 328 242 242 188 195 202 216 221 222 222 213 184 169 177 217 228 227 165 176 189 195 196 198 205 203 186 179 179 169 166 167 169 161 166 167 172 165 165 161 156 152 153 158 162 163 167 172 170 175 176 176 173 174 184 187 184 198 202 210 211 212 210 196 176 181 157 155 126 125
181 189 192 208 214 226 261 247 235 244 272 33 6 345 344 342 20 204 233 239 192 188 194 203 216 216 212 211 186 190 199 220 227 190 141 159 150 151 160 160 158 146 144 147 153 149 146 148 154 158 154 151 141 143 146 143 139 133 137 146 153 154 158 163 159 163 165 160 163 167 174 181 192 203 203 202 199 194 203 170 185 197 182 190 173 146
193 195 201 212 203 209 228 253 264 253 107 20 355 336 327 287 220 219 224 251 36 213 184 202 208 208 203 199 194 206 208 258 47 104 136 130 131 126 137 148 148 148 138 136 129 131 132 138 143 145 135 122 129 135 134 129 125 126 130 137 144 144 145 141 141 147 146 147 153 156 167 180 183 190 189 175 162 162 172 177 192 187 177 170 173 144
202 200 199 204 211 217 215 235 238 262 69 350 353 327 286 231 208 230 33 323 282 310 248 219 211 201 194 196 199 210 131 125 123 119 121 127 126 128 131 131 126 121 118 119 131 139 136 131 125 122 118 121 124 125 125 123 120 124 127 132 133 136 130 132 137 138 139 142 145 153 160 166 157 154 123 123 130 131 157 174 172 167 168 187 180 166
190 197 200 205 206 212 216 227 219 235 91 6 353 290 173 247 9 340 304 16 37 41 90 167 186 173 172 150 129 117 122 118 121 118 113 116 120 120 120 119 117 117 118 121 120 117 118 116 114 111 115 121 119 117 122 122 122 127 136 131 125 119 119 123 126 128 130 132 142 150 151 146 143 136 122 147 169 177 169 163 178 176 180 185 181 181
181 215 209 208 200 212 207 213 221 343 35 20 16 299 354 335 352 343 343 100 80 98 92 84 99 125 132 127 125 115 110 108 105 109 109 107 107 105 103 104 108 112 114 112 110 106 99 95 95 96 95 97 107 117 120 124 126 132 131 135 139 135 129 130 131 129 130 132 138 141 136 136 141 132 137 156 163 167 172 180 180 178 183 184 183 186
172 238 238 205 157 235 233 199 88 92 61 32 3 100 189 22 55 300 83 87 103 93 100 94 92 101 110 116 115 116 111 107 105 102 101 100 99 96 94 93 96 98 100 101 103 102 100 100 100 99 97 99 102 101 111 125 123 119 122 138 139 138 138 138 138 137 137 137 135 134 132 138 134 128 139 151 161 162 168 171 172 179 179 182 192 194
30 6 269 207 133 81 49 36 102 92 75 58 84 1 47 43 37 42 71 83 65 72 71 83 89 101 108 110 111 107 102 102 98 93 90 86 84 81 83 88 90 93 95 96 101 104 107 108 109 109 110 111 112 115 124 131 136 140 144 147 146 146 139 133 132 135 139 137 139 136 140 138 138 141 147 152 158 163 164 168 172 175 175 190 194 192
42 14 296 204 140 165 147 156 126 109 100 47 42 68 50 42 44 43 48 53 59 65 69 62 62 63 72 75 86 94 95 92 88 81 75 72 70 71 71 70 70 75 82 83 89 104 105 107 107 109 111 112 119 126 131 135 128 123 134 142 147 144 140 136 137 136 138 137 133 135 138 142 147 150 148 154 157 166 169 172 184 182 188 196 193 190
114 346 318 163 156 211 131 134 96 85 78 50 13 47 46 36 41 49 58 63 67 64 61 63 68 67 63 71 72 82 88 91 91 88 79 68 65 64 64 67 70 70 67 72 75 87 99 105 109 110 108 108 109 107 107 107 112 121 131 138 140 134 135 140 144 143 141 138 136 139 144 146 143 148 153 158 164 165 172 167 185 186 194 199 194 191
312 302 66 159 170 112 109 106 108 94 63 30 29 30 27 29 42 48 60 76 80 78 76 70 61 58 51 56 60 66 65 62 71 83 82 70 62 60 62 65 65 64 64 64 61 68 77 84 89 97 103 103 104 100 100 106 116 126 129 138 135 138 142 137 137 136 139 139 140 138 144 146 156 163 160 162 123 62 46 37 196 190 184 80 6 298
288 167 350 291 160 168 157 147 153 137 150 90 45 16 15 12 37 51 47 47 50 63 69 71 63 55 53 49 52 54 55 53 54 61 69 65 58 52 53 63 71 73 67 63 64 66 67 65 72 80 89 97 102 105 109 108 120 136 146 139 138 143 135 137 139 143 142 144 143 140 146 154 165 161 161 161 140 121 94 69 62 32 20 87 39 41
350 353 318 207 178 130 28 175 95 82 84 59 40 31 29 26 41 46 44 42 43 48 53 62 63 51 49 49 51 62 60 55 53 58 65 61 56 50 48 47 50 57 65 71 79 70 69 69 66 73 79 87 95 105 110 123 136 145 137 135 141 145 142 146 146 145 139 142 141 139 150 155 159 151 167 157 155 156 150 144 69 52 47 50 57 46